Location: Bacharowice
(49.9333°N, 19.5833°E)
Time: 09:10:15
(UTC+00:00)

Cosmos 2084 Rocket - Pass Details

Date: 11 May 2021
Orbit: 521 x 659 km, 62.8° (Epoch: 21 June)

Event Time Altitude Azimuth Distance (km) Brightness Sun altitude
Rises 21:52:59 0° 312° (NW) 2,778 7.8 -21.2°
Reaches altitude 10° 21:55:14 10° 306° (NW) 1,899 6.7 -21.3°
Maximum altitude 21:59:20 45° 234° (SW) 819 3.9 -21.4°
Enters shadow 21:59:23 45° 232° (SW) 819 3.9 -21.4°
